[[{"header":{"parameterUnit":"m.s-1","parameterCategory":2,"la1":30.2991,"la2":30.254,"lo1":-89.0895,"lo2":-89.0444,"dy":0.0017,"dx":0.0017,"nx":28,"ny":28,"refTime":"2026-02-17T03:00:00:Z","depth":"0","parameterNumber":2,"parameterNumberName":"U-component_of_CURRENTS"},"data":[0,0,0,0,0,0,0,0,0,0,0,0,0,0,0,0,0,0,0,0,0,0,0,0,0,0,0,0,0,0,0,0,0,0,0,0,0,0,0,0,0,0,0,0,0,0,0,0,0,0,0,0,0,0,0,0,0,0,0.2699,0.27,0,0.2712,0.2712,0.2712,0.2705,0.2705,0.2705,0.2705,0.2681,0.2681,0.268,0,0,0,0,0,0,0,0,0,0,0,0,0,0.2676,0.2676,0.2699,0.27,0.27,0.2712,0.2712,0.2712,0.2705,0.2705,0.2705,0.2705,0.2681,0.2681,0.268,0,0,0,0,0,0,0,0,0,0,0,0,0,0.2684,0.2676,0.2699,0.27,0.2701,0.2712,0.2712,0.2712,0.2705,0.2705,0.2705,0.2705,0.2682,0.2681,0.268,0.2676,0,0,0.2677,0.2677,0,0,0,0,0,0,0,0,0.2684,0.2685,0.27,0.27,0.2701,0.271,0.2695,0.2699,0.2705,0.27,0.2705,0.2705,0.2689,0.2688,0.2686,0.2675,0.2674,0.2677,0.2677,0.2676,0.2676,0,0,0,0,0,0,0,0.2683,0.2684,0.2701,0.27,0.2701,0.2703,0.2704,0.2696,0.2692,0.2701,0.2701,0.2707,0.2689,0.2687,0.2686,0.2674,0.2677,0.2676,0.2676,0.2675,0.2705,0.2706,0,0,0,0,0,0,0.2688,0.2684,0.2701,0.2702,0.2696,0.2704,0.2704,0.2704,0.2693,0.2692,0.2707,0.2707,0.2689,0.2687,0.2685,0.2714,0.2676,0.2675,0.2675,0.2704,0.2705,0.2707,0,0,0,0,0,0,0.2687,0.2689,0.27,0.2696,0.2698,0.2705,0.2704,0.2705,0.2708,0.2699,0.2697,0.2712,0.2689,0.2686,0.2693,0.2711,0.2675,0.2674,0.2702,0.2704,0.2706,0.2749,0,0,0,0,0,0,0.2686,0.2688,0.2688,0.2696,0.2698,0.2713,0.2705,0.2705,0.2714,0.2713,0.2702,0.2699,0.2688,0.2694,0.2692,0.2709,0.2673,0.27,0.2703,0.2705,0.2746,0.2752,0.2758,0,0,0,0,0,0.2685,0.2686,0.2688,0.269,0.2699,0.2714,0.2715,0.2718,0.2714,0.2719,0.2718,0.27,0.2708,0.2694,0.2691,0.2709,0.2699,0.2702,0.2705,0.2744,0.2751,0.2758,0,0,0,0,0,0,0.2673,0.2686,0.2688,0.2692,0.2706,0.2714,0.2718,0.2722,0.2724,0.2723,0.2711,0.2709,0.2724,0.2712,0.2697,0.2728,0.2703,0.2706,0.2734,0.2741,0.2746,0.2764,0.2673,0,0,0,0,0,0.2672,0.2677,0.2692,0.2696,0.2703,0.2712,0.2718,0.2723,0.2728,0.2729,0.2724,0.2724,0.2733,0.2733,0.2734,0.2744,0.2782,0.2757,0.2763,0.2768,0.2782,0.285,0.2864,0.2716,0.2716,0.2716,0,0,0.2669,0.2677,0.2679,0.2694,0.2702,0.272,0.2714,0.2728,0.2745,0.2726,0.274,0.2742,0.2741,0.2759,0.2765,0.2751,0.2837,0.2772,0.2776,0.2787,0.2855,0.2869,0.2882,0.2718,0.2718,0.2718,0,0,0.267,0.2672,0.268,0.2695,0.2714,0.2725,0.2732,0.2747,0.2754,0.2771,0.277,0.2789,0.2785,0.2801,0.2806,0.2846,0.2867,0.2841,0.2881,0.2948,0.2961,0.2972,0.3072,0.3092,0.2843,0.2843,0.2843,0,0.2667,0.2678,0.2686,0.2701,0.2718,0.273,0.275,0.2762,0.2778,0.2796,0.2781,0.2822,0.2811,0.2859,0.287,0.286,0.2912,0.2851,0.2956,0.2968,0.298,0.3079,0.3101,0.2845,0.2845,0.2845,0.2845,0,0.2678,0.2691,0.2697,0.2723,0.2741,0.2759,0.2785,0.2804,0.2814,0.2832,0.2878,0.2881,0.2912,0.291,0.2897,0.2973,0.2992,0.2957,0.2939,0.2997,0.3098,0.312,0.2849,0.2848,0.2847,0.2847,0,0,0.2663,0.2699,0.2701,0.2729,0.2755,0.2781,0.2809,0.2851,0.2905,0.2906,0.2982,0.2978,0.2993,0.3002,0.3001,0.3048,0.3171,0.3036,0.3038,0.3138,0.3357,0.3342,0.3365,0.3154,0.3158,0.316,0.3407,0,0.2671,0.271,0.2721,0.2769,0.2799,0.2822,0.2861,0.2902,0.2944,0.3022,0.3034,0.3105,0.3026,0.3073,0.3097,0.3171,0.3226,0.311,0.3283,0.329,0.327,0.3388,0.3229,0.3433,0.3429,0.3432,0.3435,0,0.2682,0.2709,0.2755,0.2821,0.2837,0.2868,0.2959,0.2997,0.3089,0.3129,0.3181,0.3219,0.33,0.3229,0.3356,0.329,0.3322,0.3361,0.3371,0.3355,0.3315,0.3367,0.3473,0.3361,0.3469,0.3466,0.3464,0,0.27,0.2739,0.2782,0.2801,0.2872,0.2903,0.2942,0.3029,0.3108,0.3225,0.3322,0.3382,0.347,0.3505,0.3555,0.3481,0.3719,0.3626,0.3646,0.3647,0.3546,0.3531,0.356,0.3716,0.3715,0.3715,0.3714,0,0.2729,0.2774,0.2795,0.2833,0.2917,0.2934,0.3051,0.3106,0.3223,0.3347,0.3386,0.352,0.3543,0.3666,0.366,0.3752,0.3803,0.3699,0.3717,0.3559,0.3544,0.3465,0.342,0.3724,0.3722,0.372,0.3718,0,0.2804,0.2798,0.2871,0.2921,0.2942,0.3015,0.3133,0.3225,0.3314,0.3491,0.3548,0.3685,0.3831,0.3873,0.3988,0.3918,0.389,0.4001,0.3834,0.3826,0.3679,0.3642,0.3605,0.3497,0.4069,0.407,0.4072,0,0.2882,0.2903,0.2958,0.3006,0.3044,0.3132,0.3205,0.328,0.3374,0.3593,0.3687,0.3885,0.3989,0.4169,0.4118,0.4158,0.3981,0.4022,0.3816,0.3696,0.367,0.3496,0.3393,0.3725,0.3723,0.3722,0.3721,0,0.3035,0.3022,0.3084,0.3145,0.3213,0.3287,0.3371,0.3449,0.3545,0.3674,0.3834,0.3941,0.4102,0.4063,0.412,0.4098,0.3819,0.3991,0.3898,0.3448,0.323,0.3125,0.357,0.3707,0.3708,0.3709,0.371,0.371,0.3167,0.3218,0.3236,0.3302,0.336,0.3381,0.3401,0.3485,0.3585,0.3686,0.3848,0.3912,0.3954,0.3992,0.397,0.3792,0.375,0.3613,0.3606,0.3461,0.3254,0.3695,0.3813,0.3815,0.3817,0.3818,0.382,0,0.3288,0.3299,0.3381,0.34,0.3415,0.3419,0.3465,0.3432,0.3469,0.3611,0.3691,0.3677,0.3676,0.3666,0.3547,0.3397,0.3201,0.3305,0.2998,0.2933,0.3367,0.3244,0.3202,0.3202,0.3202,0.3203,0.3203,0.3203,0.3355,0.3407,0.3402,0.3408,0.3399,0.3328,0.3299,0.3275,0.3308,0.3273,0.3231,0.3263,0.3318,0.3348,0.3184,0.3102,0.2836,0.2733,0.2734,0.3015,0.304,0.3063,0.2934,0.2828,0.2827,0.2118,0.2113,0.2109]},{"header":{"parameterUnit":"m.s-1","parameterCategory":2,"la1":30.2991,"la2":30.254,"lo1":-89.0895,"lo2":-89.0444,"dy":0.0017,"dx":0.0017,"nx":28,"ny":28,"refTime":"2026-02-17T03:00:00:Z","depth":"0","parameterNumber":3,"parameterNumberName":"V-component_of_CURRENTS"},"data":[0,0,0,0,0,0,0,0,0,0,0,0,0,0,0,0,0,0,0,0,0,0,0,0,0,0,0,0,0,0,0,0,0,0,0,0,0,0,0,0,0,0,0,0,0,0,0,0,0,0,0,0,0,0,0,0,0,0,0.0071,0.0071,0,0.0014,0.0013,0.0012,-0.0032,-0.0033,-0.0033,-0.0034,-0.0087,-0.0088,-0.0089,0,0,0,0,0,0,0,0,0,0,0,0,0,0.0111,0.0111,0.0071,0.0071,0.007,0.0014,0.0013,0.0012,-0.0032,-0.0033,-0.0033,-0.0034,-0.0087,-0.0088,-0.0089,0,0,0,0,0,0,0,0,0,0,0,0,0,0.0077,0.011,0.0072,0.0042,0.0039,0.0014,0.0013,0.0012,-0.0032,-0.0033,-0.0033,-0.0034,-0.0086,-0.0088,-0.0089,-0.0089,0,0,-0.0094,-0.0095,0,0,0,0,0,0,0,0,0.0079,0.0075,0.0047,0.0044,0.004,-0.0002,0.0007,-0.0021,-0.0032,-0.0006,-0.0034,-0.0034,-0.0057,-0.0061,-0.0072,-0.0092,-0.0094,-0.0095,-0.0096,-0.0096,-0.0097,0,0,0,0,0,0,0,0.0081,0.0077,0.0048,0.0046,0.0042,0.0021,0.0015,0.0001,-0.0029,-0.0009,-0.0012,-0.0017,-0.0059,-0.0071,-0.0074,-0.0095,-0.0094,-0.0096,-0.0097,-0.0098,-0.0119,-0.0118,0,0,0,0,0,0,0.0093,0.008,0.0049,0.0046,0.006,0.0021,0.0015,0.0011,-0.0029,-0.0035,-0.0016,-0.0018,-0.0067,-0.0072,-0.0076,-0.0064,-0.0096,-0.0098,-0.0099,-0.0119,-0.0119,-0.0118,0,0,0,0,0,0,0.0094,0.0091,0.0052,0.0062,0.0056,0.0021,0.0017,0.0011,0.0001,-0.0034,-0.0041,-0.0018,-0.0068,-0.0073,-0.0085,-0.0067,-0.0099,-0.01,-0.012,-0.0119,-0.0118,-0.005,0,0,0,0,0,0,0.0095,0.0091,0.0095,0.0063,0.0056,0.0049,0.0018,0.001,-0.0,-0.0004,-0.0038,-0.0044,-0.0069,-0.0082,-0.0086,-0.007,-0.0101,-0.012,-0.0119,-0.0119,-0.0052,-0.0047,-0.0042,0,0,0,0,0,0.0097,0.0109,0.0095,0.0092,0.0061,0.0049,0.0044,0.0016,0.0,0.0004,-0.0023,-0.0043,-0.008,-0.0083,-0.0088,-0.0072,-0.0121,-0.012,-0.0119,-0.0055,-0.0048,-0.0042,0,0,0,0,0,0,0.0129,0.0105,0.0089,0.0093,0.0076,0.0042,0.0043,0.0023,0.0004,0.0,-0.0037,-0.0044,-0.0049,-0.007,-0.0072,-0.0077,-0.0103,-0.0103,-0.0053,-0.0047,-0.0042,-0.0021,-0.0103,0,0,0,0,0,0.0138,0.0139,0.0112,0.0115,0.011,0.0077,0.0069,0.0052,0.0029,0.0019,-0.0007,-0.0032,-0.005,-0.0055,-0.0077,-0.0074,-0.0088,-0.0068,-0.0063,-0.0058,-0.0046,-0.0058,-0.0052,-0.0115,-0.0115,-0.0115,0,0,0.015,0.0138,0.0137,0.0122,0.0105,0.0112,0.0071,0.0067,0.0072,0.0018,0.0018,-0.0015,-0.0047,-0.0049,-0.0052,-0.0062,-0.0046,-0.0057,-0.0052,-0.0043,-0.0056,-0.005,-0.0044,-0.0114,-0.0114,-0.0114,0,0,0.0182,0.0166,0.018,0.0173,0.0157,0.014,0.0143,0.0114,0.0102,0.0094,0.0057,0.0037,0.001,-0.0008,-0.002,0.0003,-0.0021,-0.0005,0.0045,0.0033,0.0039,0.0043,0.0044,0.0048,0.0002,0.0003,0.0003,0,0.0198,0.0212,0.0183,0.0198,0.0202,0.0159,0.0181,0.0164,0.0135,0.0136,0.0105,0.0067,0.0032,0.0038,0.0038,0.0018,0.001,0.0025,0.0042,0.0046,0.0049,0.0049,0.0052,0.0006,0.0006,0.0005,0.0005,0,0.0241,0.0254,0.0264,0.0269,0.0269,0.0281,0.0259,0.0254,0.0229,0.0212,0.0204,0.0151,0.0131,0.0113,0.0079,0.0092,0.0078,0.0047,0.003,0.006,0.0057,0.006,0.0011,0.001,0.0009,0.0008,0,0,0.0277,0.0292,0.0297,0.0321,0.0311,0.0323,0.033,0.0334,0.0358,0.0309,0.0339,0.0276,0.0242,0.0225,0.018,0.0163,0.017,0.012,0.0117,0.0129,0.0158,0.0173,0.0177,0.0142,0.0143,0.0144,0.015,0,0.0322,0.0375,0.0365,0.0419,0.0448,0.042,0.0438,0.0434,0.0422,0.0439,0.038,0.039,0.0288,0.0293,0.025,0.0205,0.0179,0.0172,0.0119,0.0118,0.0134,0.0181,0.017,0.0177,0.0152,0.0152,0.0153,0,0.037,0.0403,0.0462,0.0509,0.0519,0.054,0.0575,0.0589,0.059,0.0585,0.0564,0.0526,0.05,0.0411,0.0326,0.0329,0.0243,0.0191,0.0189,0.0183,0.0138,0.0139,0.0182,0.0019,0.0156,0.0156,0.0156,0,0.0424,0.0476,0.0531,0.0545,0.0581,0.0603,0.0622,0.0632,0.0678,0.0694,0.0744,0.0671,0.0678,0.0557,0.0434,0.0384,0.0356,0.0273,0.0202,0.0202,0.0174,0.0171,0.006,0.0202,0.0202,0.0202,0.0202,0,0.0483,0.0532,0.0562,0.0596,0.0675,0.067,0.0758,0.0763,0.0812,0.0909,0.083,0.091,0.0715,0.0672,0.0511,0.0395,0.041,0.0231,0.0211,0.0198,0.0198,0.0037,-0.0062,0.0202,0.0202,0.0202,0.0202,0,0.0542,0.0554,0.0631,0.0681,0.0703,0.0763,0.086,0.093,0.0961,0.1093,0.1118,0.1105,0.1063,0.0877,0.0718,0.053,0.0309,0.0344,0.0354,0.0334,0.0085,-0.0009,-0.0121,-0.0199,0.0256,0.0256,0.0256,0,0.058,0.0621,0.0703,0.0761,0.0789,0.0879,0.0949,0.0998,0.1088,0.124,0.132,0.133,0.1377,0.1157,0.0839,0.0581,0.0378,0.0368,0.025,0.0095,-0.0026,-0.0099,-0.0164,0.0237,0.0237,0.0238,0.0238,0,0.0663,0.0684,0.0751,0.0861,0.0943,0.1053,0.1157,0.1251,0.1345,0.1483,0.1665,0.1733,0.1544,0.1295,0.0921,0.0717,0.025,0.0363,0.0191,-0.0046,-0.0122,-0.0213,0.0215,0.0239,0.0239,0.0239,0.0239,0.0239,0.0729,0.0787,0.0864,0.0975,0.1074,0.12,0.1306,0.1449,0.1628,0.1849,0.1911,0.2065,0.1668,0.1177,0.0879,0.0294,0.0279,0.0076,-0.0022,-0.0077,-0.0168,0.0284,0.0291,0.0291,0.0291,0.0291,0.0291,0,0.0795,0.0858,0.0974,0.1094,0.1212,0.1246,0.1427,0.1558,0.179,0.2031,0.2214,0.2125,0.1649,0.1126,0.0332,-0.0049,-0.021,-0.025,-0.039,-0.0438,-0.0046,-0.0063,-0.0117,-0.0117,-0.0117,-0.0117,-0.0116,-0.0116,0.0831,0.0933,0.0988,0.1177,0.1271,0.143,0.1535,0.1755,0.1952,0.2245,0.2358,0.2411,0.198,0.0658,-0.0227,-0.0416,-0.0697,-0.0737,-0.0858,-0.0636,-0.0614,-0.0594,-0.0633,-0.0807,-0.0808,-0.1224,-0.1228,-0.1232]}],[{"header":{"parameterUnit":"m.s-1","parameterCategory":2,"la1":30.2991,"la2":30.254,"lo1":-89.0895,"lo2":-89.0444,"dy":0.0017,"dx":0.0017,"nx":28,"ny":28,"refTime":"2026-02-17T03:00:00:Z","depth":"2","parameterNumber":2,"parameterNumberName":"U-component_of_CURRENTS"},"data":[0,0,0,0,0,0,0,0,0,0,0,0,0,0,0,0,0,0,0,0,0,0,0,0,0,0,0,0,0,0,0,0,0,0,0,0,0,0,0,0,0,0,0,0,0,0,0,0,0,0,0,0,0,0,0,0,0,0,0.2246,0.2246,0,0.2278,0.2278,0.2279,0.2284,0.2284,0.2284,0.2284,0.2295,0.2295,0.2296,0,0,0,0,0,0,0,0,0,0,0,0,0,0.2204,0.2204,0.2246,0.2246,0.2247,0.2278,0.2278,0.2279,0.2284,0.2284,0.2284,0.2284,0.2295,0.2295,0.2296,0,0,0,0,0,0,0,0,0,0,0,0,0,0.2226,0.2204,0.2245,0.2255,0.2256,0.2278,0.2278,0.2279,0.2284,0.2284,0.2284,0.2284,0.2295,0.2295,0.2296,0.2301,0,0,0.2298,0.2298,0,0,0,0,0,0,0,0,0.2224,0.2227,0.2253,0.2254,0.2256,0.2279,0.2268,0.2286,0.2284,0.2271,0.2284,0.2284,0.2289,0.229,0.2294,0.2302,0.2302,0.2298,0.2298,0.2298,0.2298,0,0,0,0,0,0,0,0.2223,0.2226,0.2256,0.2254,0.2255,0.2263,0.2266,0.2271,0.2278,0.2272,0.2273,0.2281,0.2289,0.2293,0.2294,0.2303,0.2298,0.2298,0.2298,0.2299,0.2361,0.2362,0,0,0,0,0,0,0.2223,0.2224,0.2255,0.2257,0.2242,0.2264,0.2267,0.227,0.2279,0.2281,0.2281,0.2281,0.2292,0.2293,0.2294,0.2337,0.2298,0.2299,0.2299,0.2359,0.2361,0.2363,0,0,0,0,0,0,0.2221,0.2225,0.2254,0.2243,0.2248,0.2265,0.2268,0.2271,0.2283,0.2286,0.2287,0.2292,0.2292,0.2294,0.2314,0.2336,0.2299,0.2299,0.2358,0.236,0.2362,0.2399,0,0,0,0,0,0,0.222,0.2224,0.2229,0.2243,0.2249,0.2275,0.2269,0.2271,0.2288,0.2289,0.2296,0.2296,0.2292,0.2313,0.2315,0.2336,0.23,0.2356,0.2359,0.2361,0.2396,0.2402,0.2407,0,0,0,0,0,0.2218,0.2224,0.2229,0.2233,0.2253,0.2276,0.2279,0.2289,0.2289,0.2299,0.2307,0.2296,0.233,0.2315,0.2316,0.2338,0.2355,0.2358,0.2361,0.2393,0.2401,0.2407,0,0,0,0,0,0,0.2208,0.2226,0.2231,0.2242,0.2262,0.2278,0.2289,0.2296,0.231,0.2312,0.231,0.2312,0.234,0.2336,0.2319,0.2365,0.2342,0.2346,0.2367,0.2373,0.2379,0.2385,0.23,0,0,0,0,0,0.2208,0.2217,0.2238,0.2248,0.2259,0.2276,0.2287,0.2297,0.2311,0.2317,0.2323,0.2334,0.2352,0.2359,0.2371,0.2392,0.241,0.2409,0.2415,0.2419,0.2427,0.2477,0.2488,0.2372,0.2372,0.2372,0,0,0.2207,0.2219,0.2224,0.2247,0.2262,0.2283,0.2282,0.2305,0.2325,0.2316,0.2343,0.2353,0.2363,0.2391,0.2403,0.239,0.2464,0.2423,0.2427,0.2432,0.2481,0.2492,0.2502,0.2374,0.2374,0.2374,0,0,0.2211,0.2221,0.2231,0.2251,0.2279,0.2293,0.2303,0.2327,0.2341,0.2368,0.2373,0.2399,0.2416,0.2434,0.2443,0.2486,0.2493,0.2489,0.252,0.2569,0.2579,0.2587,0.2634,0.2647,0.2491,0.2491,0.2491,0,0.221,0.2225,0.224,0.2259,0.2278,0.2299,0.2321,0.2342,0.237,0.2389,0.2382,0.2436,0.2439,0.2486,0.2501,0.2499,0.2527,0.2492,0.2576,0.2585,0.2594,0.2639,0.2653,0.2493,0.2493,0.2492,0.2492,0,0.2223,0.2241,0.2251,0.2282,0.2304,0.2327,0.2359,0.2385,0.2403,0.2425,0.2475,0.2491,0.2524,0.2531,0.2527,0.2591,0.2593,0.2578,0.2558,0.2607,0.2652,0.2666,0.2496,0.2495,0.2494,0.2494,0,0,0.2209,0.2251,0.2255,0.2274,0.2319,0.2337,0.2379,0.2424,0.2463,0.249,0.2543,0.2572,0.2587,0.26,0.2608,0.2646,0.2727,0.2638,0.264,0.2682,0.2843,0.2793,0.2803,0.2729,0.2731,0.2733,0.2853,0,0.2217,0.2249,0.2273,0.2311,0.2333,0.237,0.2409,0.2453,0.2498,0.2555,0.2586,0.2639,0.2613,0.2643,0.2676,0.2722,0.2763,0.2696,0.2791,0.2794,0.2741,0.2817,0.2581,0.2664,0.2866,0.2869,0.287,0,0.2222,0.2244,0.2278,0.233,0.2344,0.2372,0.2445,0.2486,0.2569,0.2611,0.2668,0.2699,0.2768,0.2737,0.2837,0.2798,0.2823,0.2849,0.2854,0.2803,0.2768,0.2646,0.2681,0.2892,0.2891,0.2889,0.2888,0,0.2199,0.2248,0.2273,0.229,0.2353,0.238,0.2418,0.2499,0.2554,0.2658,0.2716,0.2789,0.285,0.2891,0.2935,0.29,0.3046,0.3001,0.2981,0.2978,0.2794,0.277,0.3072,0.3072,0.3072,0.3072,0.3071,0,0.2196,0.2217,0.2264,0.2278,0.232,0.2368,0.2437,0.2493,0.2596,0.2671,0.2743,0.2818,0.2894,0.2974,0.2985,0.3037,0.3089,0.301,0.3014,0.2801,0.2777,0.2978,0.2965,0.3076,0.3075,0.3074,0.3073,0,0.217,0.2199,0.2229,0.2287,0.2309,0.2338,0.2439,0.2498,0.2598,0.2705,0.2745,0.2878,0.2984,0.3049,0.3146,0.3113,0.3158,0.3157,0.2905,0.2877,0.3044,0.3032,0.3152,0.3151,0.3151,0.315,0.315,0,0.2164,0.2175,0.2223,0.2245,0.2272,0.2331,0.2382,0.2487,0.2548,0.2729,0.2769,0.2925,0.2995,0.3128,0.312,0.3156,0.3191,0.2948,0.2827,0.3065,0.3057,0.3046,0.3035,0.2604,0.2599,0.2595,0.2592,0,0.2148,0.2158,0.2174,0.2216,0.226,0.2304,0.2372,0.2416,0.2547,0.2636,0.274,0.2819,0.2966,0.2903,0.2974,0.2948,0.292,0.287,0.3205,0.2617,0.2557,0.2546,0.2552,0.2557,0.256,0.2563,0.2565,0.2566,0.213,0.2125,0.214,0.2169,0.2215,0.2226,0.2225,0.2308,0.2366,0.2451,0.2607,0.2652,0.272,0.2702,0.2636,0.259,0.2779,0.264,0.2648,0.2662,0.2574,0.2516,0.2492,0.2495,0.2498,0.25,0.2502,0,0.2083,0.2076,0.21,0.2096,0.2094,0.2153,0.2178,0.2143,0.2148,0.2296,0.2362,0.223,0.223,0.2294,0.2174,0.2183,0.2119,0.2089,0.1978,0.2017,0.2051,0.1926,0.1675,0.1672,0.1669,0.1667,0,0,0.2056,0.202,0.2006,0.1949,0.1968,0.1898,0.188,0.1858,0.1894,0.1898,0.1934,0.2146,0.2246,0.1934,0.1901,0.1765,0.1865,0.1695,0.2368,0.2278,0.2307,0.2392,0.2249,0,0,0,0,0]},{"header":{"parameterUnit":"m.s-1","parameterCategory":2,"la1":30.2991,"la2":30.254,"lo1":-89.0895,"lo2":-89.0444,"dy":0.0017,"dx":0.0017,"nx":28,"ny":28,"refTime":"2026-02-17T03:00:00:Z","depth":"2","parameterNumber":3,"parameterNumberName":"V-component_of_CURRENTS"},"data":[0,0,0,0,0,0,0,0,0,0,0,0,0,0,0,0,0,0,0,0,0,0,0,0,0,0,0,0,0,0,0,0,0,0,0,0,0,0,0,0,0,0,0,0,0,0,0,0,0,0,0,0,0,0,0,0,0,0,0.0119,0.0118,0,0.0064,0.0064,0.0063,0.0024,0.0024,0.0024,0.0024,-0.0026,-0.0027,-0.0028,0,0,0,0,0,0,0,0,0,0,0,0,0,0.0161,0.016,0.0119,0.0118,0.0118,0.0064,0.0064,0.0063,0.0024,0.0024,0.0024,0.0024,-0.0026,-0.0027,-0.0028,0,0,0,0,0,0,0,0,0,0,0,0,0,0.0128,0.016,0.0119,0.0093,0.009,0.0065,0.0064,0.0063,0.0025,0.0024,0.0024,0.0023,-0.0025,-0.0027,-0.0028,-0.0031,0,0,-0.0033,-0.0034,0,0,0,0,0,0,0,0,0.013,0.0126,0.0097,0.0094,0.0091,0.0051,0.006,0.0032,0.0025,0.0049,0.0024,0.0023,0.0001,-0.0003,-0.0013,-0.0034,-0.0036,-0.0034,-0.0035,-0.0035,-0.0036,0,0,0,0,0,0,0,0.0132,0.0128,0.0097,0.0097,0.0093,0.0073,0.0069,0.0054,0.0027,0.0047,0.0044,0.0039,-0.0001,-0.0012,-0.0015,-0.0036,-0.0034,-0.0035,-0.0036,-0.0037,-0.0061,-0.006,0,0,0,0,0,0,0.0142,0.013,0.0098,0.0095,0.0111,0.0073,0.0068,0.0064,0.0027,0.0021,0.0039,0.0037,-0.0009,-0.0013,-0.0017,-0.0009,-0.0035,-0.0037,-0.0038,-0.0061,-0.0061,-0.006,0,0,0,0,0,0,0.0143,0.014,0.0101,0.0112,0.0106,0.0073,0.0069,0.0063,0.0054,0.0022,0.0016,0.0037,-0.0009,-0.0014,-0.0026,-0.0012,-0.0038,-0.0039,-0.0062,-0.0061,-0.0061,-0.0002,0,0,0,0,0,0,0.0145,0.014,0.0143,0.0113,0.0105,0.0095,0.0069,0.0062,0.0052,0.0049,0.0018,0.0012,-0.001,-0.0023,-0.0027,-0.0014,-0.004,-0.0062,-0.0061,-0.0061,-0.0004,0.0,0.0005,0,0,0,0,0,0.0146,0.0154,0.0144,0.014,0.011,0.0095,0.009,0.0065,0.0052,0.0054,0.0031,0.0013,-0.0022,-0.0024,-0.0029,-0.0016,-0.0062,-0.0062,-0.0061,-0.0006,-0.0001,0.0004,0,0,0,0,0,0,0.0172,0.015,0.0138,0.0138,0.0122,0.0089,0.0088,0.0071,0.0053,0.0051,0.0018,0.0011,0.0005,-0.0014,-0.0015,-0.0022,-0.0045,-0.0045,-0.0002,0.0004,0.0008,0.0022,-0.0042,0,0,0,0,0,0.018,0.018,0.0155,0.0155,0.015,0.012,0.0111,0.0096,0.0075,0.0066,0.0042,0.002,0.0004,-0.0002,-0.0022,-0.0022,-0.0045,-0.0018,-0.0014,-0.001,-0.0002,-0.0026,-0.0023,-0.0058,-0.0058,-0.0058,0,0,0.0189,0.0178,0.0177,0.0161,0.0145,0.0149,0.0114,0.0107,0.0111,0.0065,0.0062,0.0034,0.0006,0.0002,-0.0002,-0.0011,-0.0013,-0.0009,-0.0005,0.0,-0.0025,-0.0022,-0.0019,-0.0057,-0.0057,-0.0057,0,0,0.0212,0.0199,0.0209,0.0202,0.0187,0.0171,0.0173,0.0146,0.0135,0.0127,0.0095,0.0077,0.0052,0.0035,0.0024,0.0042,0.001,0.0036,0.0074,0.0051,0.0053,0.0056,0.003,0.003,0.0041,0.0041,0.0041,0,0.0224,0.0235,0.021,0.0222,0.0224,0.0187,0.0204,0.0189,0.0161,0.0159,0.0135,0.0096,0.0069,0.0068,0.0071,0.0054,0.0033,0.0057,0.0057,0.0059,0.006,0.0033,0.0032,0.0044,0.0044,0.0043,0.0043,0,0.0258,0.0268,0.0275,0.0279,0.0278,0.0286,0.0266,0.0261,0.024,0.0222,0.0209,0.0164,0.0143,0.0129,0.0104,0.0104,0.0083,0.0064,0.0047,0.0068,0.0038,0.0035,0.0048,0.0047,0.0046,0.0045,0,0,0.0281,0.0296,0.03,0.0318,0.0312,0.0317,0.0325,0.0324,0.0338,0.0295,0.0305,0.0261,0.023,0.0215,0.0178,0.0153,0.0138,0.0117,0.0114,0.0097,0.0084,0.0056,0.0051,0.0118,0.0118,0.0118,0.006,0,0.0316,0.0358,0.0353,0.0394,0.0415,0.0394,0.0407,0.0401,0.0388,0.0386,0.0333,0.0324,0.0266,0.0257,0.0223,0.0163,0.0134,0.0155,0.0062,0.0059,0.0036,0.0048,0.0069,0.0018,0.0057,0.0057,0.0056,0,0.0352,0.0379,0.0426,0.046,0.0467,0.0483,0.0505,0.0515,0.0501,0.0491,0.0466,0.042,0.0381,0.0325,0.0231,0.0246,0.0173,0.0116,0.0112,0.0065,0.0027,0.0003,0.0012,0.0052,0.0052,0.0053,0.0053,0,0.0389,0.0431,0.0475,0.0486,0.0513,0.053,0.0543,0.0545,0.0575,0.0561,0.0575,0.0507,0.0487,0.0383,0.0259,0.0247,0.0149,0.0118,0.0021,0.0017,0.0007,0.0003,0.0049,0.0049,0.0049,0.0049,0.0049,0,0.0431,0.0466,0.0497,0.0521,0.0579,0.0577,0.0638,0.0638,0.0661,0.0714,0.0634,0.065,0.05,0.0421,0.0292,0.0154,0.0173,0.0031,0.0003,0.0027,0.0026,0.0032,0.0031,0.0047,0.0047,0.0048,0.0048,0,0.0464,0.0481,0.0537,0.0579,0.0597,0.0639,0.071,0.076,0.0763,0.0829,0.0829,0.0766,0.0663,0.0501,0.0339,0.0212,0.0071,0.0013,0.0049,0.0026,-0.0056,-0.0053,-0.0098,-0.01,-0.0101,-0.0102,-0.0103,0,0.0484,0.0515,0.0584,0.0629,0.0651,0.0719,0.0775,0.0808,0.0872,0.0906,0.0944,0.0861,0.0819,0.056,0.0322,0.0093,0.0064,-0.0046,-0.0071,-0.0047,-0.007,-0.0065,-0.0061,-0.0063,-0.0064,-0.0064,-0.0064,0,0.0524,0.0545,0.0596,0.0691,0.0759,0.0848,0.0927,0.0991,0.1043,0.109,0.1126,0.109,0.0852,0.0622,0.0301,0.0139,-0.001,-0.0062,-0.0038,-0.003,-0.0019,-0.004,-0.0036,-0.0068,-0.0067,-0.0067,-0.0067,-0.0067,0.0554,0.0598,0.0668,0.0761,0.0847,0.0956,0.1039,0.1128,0.1224,0.1299,0.126,0.1217,0.0952,0.0543,0.0261,-0.0037,-0.0027,-0.0133,-0.0129,-0.0126,-0.0112,-0.0104,-0.0166,-0.0166,-0.0167,-0.0167,-0.0167,0,0.0595,0.0649,0.0736,0.0848,0.0952,0.0992,0.1131,0.1211,0.1328,0.1391,0.1414,0.116,0.0898,0.0593,0.0156,-0.0111,-0.013,-0.0199,-0.0155,-0.015,-0.0146,-0.0131,-0.0192,-0.0192,-0.0193,-0.0194,0,0,0.0616,0.0702,0.0748,0.0913,0.1002,0.1139,0.1223,0.1332,0.1402,0.1451,0.1436,0.1379,0.1003,0.0685,0.032,0.0071,0.0021,0.0014,0.0061,0.0161,0.0169,-0.0083,-0.0052,0,0,0,0,0]}],[{"header":{"parameterUnit":"m.s-1","parameterCategory":2,"la1":30.2991,"la2":30.254,"lo1":-89.0895,"lo2":-89.0444,"dy":0.0017,"dx":0.0017,"nx":28,"ny":28,"refTime":"2026-02-17T03:00:00:Z","depth":"4","parameterNumber":2,"parameterNumberName":"U-component_of_CURRENTS"},"data":[0,0,0,0,0,0,0,0,0,0,0,0,0,0,0,0,0,0,0,0,0,0,0,0,0,0,0,0,0,0,0,0,0,0,0,0,0,0,0,0,0,0,0,0,0,0,0,0,0,0,0,0,0,0,0,0,0,0,0.1488,0.1489,0,0.1554,0.1554,0.1555,0.1607,0.1608,0.1609,0.1609,0.1688,0.169,0.1691,0,0,0,0,0,0,0,0,0,0,0,0,0,0.1414,0.1415,0.1488,0.1489,0.149,0.1554,0.1554,0.1555,0.1607,0.1608,0.1609,0.161,0.1688,0.169,0.1691,0,0,0,0,0,0,0,0,0,0,0,0,0,0.1458,0.1415,0.1487,0.1524,0.1528,0.1553,0.1554,0.1555,0.1607,0.1608,0.1609,0.161,0.1687,0.1689,0.1692,0.1686,0,0,0.1699,0.17,0,0,0,0,0,0,0,0,0.1456,0.1461,0.1518,0.1522,0.1526,0.1575,0.1558,0.16,0.1607,0.1576,0.1609,0.161,0.1652,0.1657,0.1665,0.169,0.1693,0.1699,0.17,0.1701,0.1702,0,0,0,0,0,0,0,0.1452,0.1458,0.1512,0.1519,0.1524,0.154,0.1547,0.1566,0.1606,0.1578,0.1583,0.1592,0.1654,0.1663,0.1667,0.1694,0.1699,0.1701,0.1702,0.1703,0.1814,0.1816,0,0,0,0,0,0,0.1446,0.1455,0.151,0.1514,0.1494,0.1541,0.1549,0.1557,0.1606,0.1615,0.1591,0.1594,0.1658,0.1665,0.167,0.1751,0.1701,0.1703,0.1704,0.1813,0.1815,0.1817,0,0,0,0,0,0,0.1444,0.145,0.1508,0.1488,0.1496,0.1541,0.155,0.1558,0.1599,0.1616,0.1625,0.1628,0.1659,0.1667,0.1718,0.1752,0.1704,0.1706,0.1811,0.1813,0.1816,0.1859,0,0,0,0,0,0,0.1442,0.1449,0.1468,0.1487,0.1497,0.1543,0.1549,0.1558,0.1602,0.1607,0.165,0.1656,0.1661,0.1714,0.172,0.1754,0.1708,0.1809,0.1812,0.1815,0.1856,0.1863,0.1869,0,0,0,0,0,0.1439,0.1455,0.1469,0.1476,0.1517,0.1544,0.1551,0.1585,0.1603,0.1625,0.1658,0.1657,0.1738,0.1717,0.1724,0.1759,0.1807,0.1811,0.1815,0.1853,0.1861,0.1869,0,0,0,0,0,0,0.1436,0.1462,0.1478,0.1503,0.1532,0.1554,0.1582,0.1602,0.1644,0.1661,0.1675,0.1684,0.1741,0.1745,0.1722,0.1801,0.1773,0.1778,0.18,0.1808,0.1815,0.1814,0.171,0,0,0,0,0,0.1442,0.1464,0.1489,0.1515,0.1531,0.1563,0.1585,0.1608,0.1639,0.1661,0.169,0.1724,0.1755,0.1778,0.1803,0.1844,0.185,0.1873,0.1879,0.1885,0.1889,0.1929,0.1939,0.1828,0.1828,0.1828,0,0,0.1449,0.1468,0.1482,0.1517,0.1544,0.1571,0.1579,0.1622,0.1654,0.1662,0.1725,0.175,0.1772,0.182,0.1846,0.1832,0.1921,0.1889,0.1894,0.1895,0.1933,0.1944,0.1954,0.1831,0.183,0.183,0,0,0.1462,0.1491,0.1512,0.1537,0.1582,0.16,0.1619,0.1659,0.1692,0.1745,0.1763,0.1809,0.1856,0.1879,0.1894,0.1953,0.1954,0.1967,0.2001,0.204,0.2049,0.2057,0.208,0.209,0.197,0.197,0.197,0,0.1474,0.1499,0.1524,0.155,0.1578,0.1616,0.1645,0.1679,0.1735,0.1764,0.1775,0.1862,0.1882,0.1938,0.1962,0.1968,0.1986,0.1967,0.2047,0.2056,0.2063,0.2085,0.2095,0.1973,0.1973,0.1972,0.1972,0,0.1491,0.1526,0.1543,0.1587,0.1618,0.1654,0.1696,0.1742,0.1786,0.1817,0.1894,0.1927,0.1977,0.1994,0.1997,0.2066,0.206,0.205,0.2024,0.2077,0.2096,0.2106,0.1977,0.1976,0.1975,0.1974,0,0,0.1478,0.1543,0.1553,0.158,0.1644,0.1666,0.1729,0.1786,0.1836,0.1894,0.1956,0.2015,0.2041,0.2061,0.2079,0.2114,0.2183,0.2111,0.2112,0.2128,0.2268,0.2123,0.2119,0.2192,0.2194,0.2196,0.226,0,0.149,0.1537,0.1571,0.1627,0.1654,0.1711,0.1762,0.1823,0.1883,0.1952,0.2001,0.207,0.2064,0.2106,0.214,0.2179,0.2212,0.2167,0.222,0.2221,0.208,0.2126,0.2202,0.2268,0.227,0.2271,0.2273,0,0.1491,0.1524,0.1576,0.1647,0.1667,0.1711,0.1802,0.1855,0.1952,0.2005,0.2077,0.2119,0.2195,0.2181,0.2265,0.2241,0.2261,0.2279,0.2282,0.2135,0.2093,0.2205,0.229,0.2289,0.2287,0.2286,0.2285,0,0.1452,0.1526,0.1568,0.1593,0.1678,0.1724,0.1779,0.1874,0.1932,0.2051,0.2107,0.219,0.2251,0.2292,0.2332,0.2315,0.2412,0.2387,0.2271,0.2261,0.2354,0.2344,0.2442,0.2442,0.2442,0.2442,0.2442,0,0.1433,0.1471,0.1559,0.158,0.164,0.1712,0.1792,0.1863,0.1974,0.2036,0.2135,0.2191,0.2287,0.2346,0.2363,0.2343,0.2438,0.2282,0.2269,0.2371,0.2363,0.2361,0.235,0.2444,0.2444,0.2443,0.2443,0,0.1377,0.1438,0.1487,0.1585,0.1621,0.1664,0.1789,0.1841,0.1964,0.2051,0.2096,0.2223,0.2294,0.2361,0.2438,0.2369,0.2376,0.2346,0.2457,0.245,0.2191,0.2183,0.2213,0.2209,0.2205,0.2202,0.2199,0,0.1346,0.1367,0.1472,0.1501,0.155,0.1632,0.1684,0.182,0.1875,0.2043,0.2067,0.2193,0.2256,0.2245,0.2327,0.2345,0.2319,0.2301,0.223,0.2183,0.217,0.2167,0.2164,0.2193,0.2192,0.2191,0.219,0,0.128,0.1331,0.137,0.1429,0.1488,0.1543,0.1631,0.1663,0.181,0.1943,0.1993,0.2033,0.2106,0.2153,0.2188,0.2195,0.2297,0.226,0.2267,0.22,0.2159,0.2148,0.215,0.2176,0.2178,0.2179,0.218,0,0.123,0.1235,0.1292,0.1333,0.14,0.142,0.1486,0.1548,0.1622,0.181,0.1823,0.1954,0.2081,0.2076,0.2108,0.2105,0.2066,0.1987,0.2007,0.2023,0.193,0.1847,0.1762,0,0,0,0,0,0.1167,0.1158,0.1187,0.1217,0.1281,0.132,0.143,0.1502,0.1652,0.1639,0.1727,0.1786,0.1833,0.1907,0.1866,0.2021,0.2073,0.1962,0.199,0.2101,0.2117,0.2024,0,0,0,0,0,0,0.1116,0.114,0.1145,0.1115,0.1118,0.1169,0.1234,0.1337,0.1344,0.1506,0.1547,0.1668,0.1749,0.1835,0.1827,0.1849,0.1826,0.2053,0.2048,0.2093,0.2107,0.2119,0.2029,0,0,0,0,0]},{"header":{"parameterUnit":"m.s-1","parameterCategory":2,"la1":30.2991,"la2":30.254,"lo1":-89.0895,"lo2":-89.0444,"dy":0.0017,"dx":0.0017,"nx":28,"ny":28,"refTime":"2026-02-17T03:00:00:Z","depth":"4","parameterNumber":3,"parameterNumberName":"V-component_of_CURRENTS"},"data":[0,0,0,0,0,0,0,0,0,0,0,0,0,0,0,0,0,0,0,0,0,0,0,0,0,0,0,0,0,0,0,0,0,0,0,0,0,0,0,0,0,0,0,0,0,0,0,0,0,0,0,0,0,0,0,0,0,0,0.0113,0.0113,0,0.0076,0.0075,0.0075,0.0049,0.0049,0.0049,0.0049,0.0012,0.0011,0.001,0,0,0,0,0,0,0,0,0,0,0,0,0,0.0141,0.0141,0.0113,0.0113,0.0112,0.0076,0.0075,0.0075,0.005,0.0049,0.0049,0.0049,0.0012,0.0011,0.001,0,0,0,0,0,0,0,0,0,0,0,0,0,0.0119,0.0141,0.0113,0.0095,0.0094,0.0076,0.0075,0.0075,0.005,0.0049,0.0049,0.0049,0.0012,0.0011,0.001,0.0007,0,0,0.0006,0.0005,0,0,0,0,0,0,0,0,0.012,0.0118,0.0098,0.0097,0.0094,0.0067,0.0072,0.0052,0.005,0.0066,0.0049,0.0049,0.0031,0.0028,0.0021,0.0005,0.0003,0.0006,0.0005,0.0005,0.0004,0,0,0,0,0,0,0,0.0122,0.0119,0.0098,0.0098,0.0096,0.0082,0.0079,0.0068,0.005,0.0064,0.0063,0.0059,0.003,0.0022,0.002,0.0003,0.0006,0.0005,0.0004,0.0004,-0.0016,-0.0016,0,0,0,0,0,0,0.0128,0.012,0.0099,0.0097,0.0107,0.0082,0.0078,0.0076,0.005,0.0046,0.0059,0.0058,0.0025,0.0021,0.0019,0.0025,0.0005,0.0003,0.0003,-0.0016,-0.0016,-0.0016,0,0,0,0,0,0,0.0129,0.0127,0.0101,0.0108,0.0104,0.0082,0.0079,0.0075,0.007,0.0046,0.0042,0.0059,0.0024,0.002,0.0012,0.0023,0.0003,0.0002,-0.0017,-0.0016,-0.0016,0.003,0,0,0,0,0,0,0.013,0.0127,0.013,0.0109,0.0104,0.0096,0.008,0.0075,0.0068,0.0066,0.0044,0.004,0.0024,0.0014,0.0011,0.0021,0.0001,-0.0017,-0.0017,-0.0016,0.0028,0.0032,0.0035,0,0,0,0,0,0.0131,0.0136,0.0131,0.0128,0.0108,0.0097,0.0093,0.0076,0.0069,0.007,0.0054,0.0041,0.0015,0.0013,0.0009,0.0019,-0.0017,-0.0017,-0.0016,0.0027,0.0031,0.0035,0,0,0,0,0,0,0.0148,0.0133,0.0127,0.0127,0.0116,0.0093,0.0093,0.0081,0.0069,0.0069,0.0044,0.0039,0.0035,0.002,0.0019,0.0014,-0.0004,-0.0004,0.003,0.0034,0.0038,0.0047,-0.0,0,0,0,0,0,0.0154,0.0156,0.0138,0.0139,0.0135,0.0115,0.0109,0.0099,0.0084,0.0079,0.0062,0.0045,0.0034,0.0029,0.0015,0.0014,-0.0009,0.0016,0.002,0.0023,0.0028,0.0002,0.0004,-0.0014,-0.0014,-0.0014,0,0,0.016,0.0153,0.0153,0.0143,0.0133,0.0136,0.0111,0.0107,0.0111,0.0077,0.0077,0.0057,0.0036,0.0033,0.003,0.0023,0.0015,0.0024,0.0027,0.0029,0.0003,0.0005,0.0006,-0.0014,-0.0014,-0.0014,0,0,0.0176,0.0169,0.0177,0.0173,0.0164,0.0153,0.0155,0.0136,0.0129,0.0125,0.0102,0.0089,0.0071,0.0058,0.0049,0.0063,0.0033,0.0058,0.0086,0.0061,0.0063,0.0064,0.0033,0.0031,0.0062,0.0062,0.0062,0,0.0185,0.0194,0.0177,0.0186,0.0189,0.0165,0.0178,0.0168,0.0149,0.0148,0.0132,0.0102,0.0083,0.0081,0.0084,0.0072,0.0049,0.0074,0.0066,0.0067,0.0067,0.0035,0.0032,0.0064,0.0064,0.0064,0.0064,0,0.0207,0.0217,0.0222,0.0228,0.0229,0.0235,0.0223,0.0221,0.0208,0.0196,0.0186,0.0153,0.0137,0.0127,0.011,0.0105,0.0085,0.0073,0.0058,0.0072,0.0037,0.0033,0.0067,0.0067,0.0066,0.0065,0,0,0.022,0.0236,0.0239,0.0254,0.0254,0.0258,0.0267,0.0267,0.0278,0.0248,0.0252,0.0223,0.0201,0.0189,0.0161,0.0137,0.0116,0.011,0.0107,0.0083,0.0056,0.0036,0.003,0.0102,0.0101,0.0101,0.003,0,0.0244,0.0276,0.0276,0.0308,0.0324,0.0314,0.0326,0.0324,0.0315,0.0311,0.0272,0.0265,0.0226,0.022,0.019,0.0136,0.0108,0.0136,0.0043,0.004,0.0024,0.0026,0.01,0.0027,0.0026,0.0025,0.0025,0,0.0266,0.0288,0.0325,0.0355,0.0361,0.0377,0.0396,0.0405,0.0394,0.0387,0.0367,0.0333,0.0297,0.0261,0.0173,0.0192,0.013,0.0081,0.0077,0.0041,0.0014,0.001,0.0017,0.0018,0.0018,0.0019,0.0019,0,0.0286,0.0322,0.0357,0.0367,0.0394,0.0411,0.0425,0.0429,0.0451,0.0438,0.0445,0.0389,0.0366,0.0283,0.0179,0.0177,0.0072,0.0058,-0.0021,-0.0023,-0.0005,-0.0005,-0.0005,-0.0005,-0.0005,-0.0005,-0.0005,0,0.0309,0.0338,0.0372,0.0392,0.0439,0.0444,0.0493,0.0495,0.0513,0.0543,0.0489,0.0487,0.0371,0.0295,0.0194,0.0073,0.0083,-0.0017,-0.0041,0.0015,0.0018,-0.0008,-0.0007,-0.0008,-0.0007,-0.0006,-0.0006,0,0.0323,0.0343,0.0389,0.043,0.045,0.0484,0.0548,0.0583,0.0589,0.0624,0.0624,0.0563,0.046,0.0331,0.0189,0.0101,-0.0017,-0.0063,0.0003,-0.0016,-0.0101,-0.0097,-0.0154,-0.0155,-0.0156,-0.0157,-0.0157,0,0.033,0.0354,0.0421,0.0459,0.0483,0.0541,0.0587,0.062,0.0662,0.0668,0.0684,0.0599,0.0537,0.0328,0.0183,-0.0017,-0.0047,-0.011,-0.0105,-0.0097,-0.0115,-0.011,-0.0105,-0.0159,-0.0159,-0.016,-0.016,0,0.0346,0.0371,0.0415,0.0495,0.0553,0.0624,0.0688,0.0725,0.0758,0.0764,0.0739,0.0626,0.0504,0.0332,0.0172,0.003,-0.007,-0.0122,-0.0121,-0.0116,-0.0105,-0.012,-0.0114,-0.0164,-0.0163,-0.0163,-0.0163,0,0.0362,0.0395,0.0458,0.0531,0.0607,0.0681,0.0716,0.0762,0.08,0.08,0.0786,0.0652,0.0576,0.0355,0.0209,0.0063,0.0025,-0.002,-0.0025,-0.0023,0.003,0.0065,0.0038,0,0,0,0,0,0.0378,0.0422,0.049,0.0572,0.065,0.0698,0.0774,0.0803,0.083,0.0823,0.081,0.0694,0.0476,0.0382,0.0233,0.0175,-0.0011,-0.0006,-0.0067,-0.0184,-0.018,-0.0141,0,0,0,0,0,0,0.0389,0.0454,0.0491,0.0596,0.0656,0.0747,0.0797,0.0818,0.0816,0.0815,0.0705,0.0651,0.044,0.0562,0.0229,0.0183,0.0122,-0.0106,-0.011,-0.0186,-0.0182,-0.0179,-0.0138,0,0,0,0,0]}]]